Theta_e
270 270 271 271 271 271 271 271 271 271 271 271 271 271 271 271 271 271 271 271 271 271 271 272 272 272 273 273 274 274 275 275 275 276 277 278 278 279 279 279 279 279
270 270 270 270 270 270 270 270 270 271 271 270 270 270 270 270 270 270 271 271 271 271 271 271 271 272 272 273 273 273 274 275 275 276 277 277 277 278 278 278 279 279
270 270 270 270 270 270 270 270 270 270 270 270 270 270 270 270 270 270 270 270 270 270 270 270 271 271 271 272 272 272 273 274 275 275 276 277 277 277 277 278 278 278
269 269 269 269 269 270 270 270 270 270 270 270 270 270 270 270 270 270 270 270 270 270 270 270 270 271 271 271 271 271 272 272 273 274 275 276 276 276 277 277 278 278
269 269 269 269 269 269 269 269 269 269 269 269 269 269 270 270 270 270 270 270 270 270 270 270 270 270 270 270 271 271 271 272 272 273 274 275 275 276 276 277 277 278
269 269 269 269 269 269 269 269 269 269 269 269 269 269 269 269 269 269 269 270 270 270 270 270 270 270 270 270 270 270 271 271 272 273 273 274 274 275 275 276 277 277
268 269 269 269 269 269 269 269 269 269 269 269 269 269 269 269 269 269 269 269 269 270 270 270 270 270 270 270 270 270 270 271 271 272 273 273 274 274 275 275 276 276
268 268 269 269 269 268 269 269 269 269 269 269 269 269 269 269 269 269 269 269 269 270 269 270 270 270 270 270 270 270 270 271 271 272 272 273 273 274 274 274 275 276
268 268 268 268 268 268 268 268 269 268 268 269 269 269 269 269 269 269 269 269 269 269 269 269 270 270 270 270 270 270 270 271 271 272 272 272 273 273 273 274 274 274
268 268 268 268 268 268 268 268 268 268 268 268 268 268 269 269 269 269 269 269 269 269 270 270 270 270 270 270 270 270 270 271 271 271 272 272 273 273 273 274 274 275
268 268 268 268 268 268 268 268 268 268 268 268 268 268 268 268 269 269 269 269 270 270 270 270 270 270 270 270 270 270 270 270 271 271 271 272 273 273 274 274 275 276
268 268 268 268 268 268 268 268 268 268 268 268 268 268 268 268 269 269 269 269 270 270 270 270 270 270 270 270 270 270 271 271 271 271 271 271 272 273 273 274 274 275
267 268 267 267 267 267 267 267 267 267 267 268 268 268 268 268 268 269 269 269 269 270 270 270 270 270 270 270 270 270 271 271 271 271 271 271 272 272 272 273 274 274
267 267 267 267 267 267 267 267 267 267 267 267 268 268 268 268 268 269 269 269 269 270 270 270 270 270 270 271 271 271 271 271 271 271 271 271 272 272 272 273 273 273
267 267 267 267 267 267 267 267 267 267 267 267 267 268 268 268 268 269 269 269 270 270 270 270 270 271 271 271 271 271 271 271 271 271 271 272 272 272 272 272 273 273
266 266 266 266 266 266 266 266 266 266 267 267 267 267 268 268 268 269 269 269 270 270 270 270 271 271 271 271 272 272 271 271 271 271 271 272 272 272 272 272 273 273
266 266 266 266 266 266 266 266 266 266 266 266 267 267 267 268 268 269 269 270 270 270 270 271 271 271 271 272 273 273 273 273 272 272 272 272 272 272 272 273 273 273
266 265 265 265 265 265 265 265 265 265 266 266 266 267 267 268 268 269 269 270 270 270 271 271 271 272 272 273 274 274 275 274 274 273 272 272 272 273 273 273 273 274
265 265 265 265 265 265 265 265 265 265 265 266 266 267 268 268 269 269 270 271 271 271 272 272 272 273 273 274 275 275 276 276 276 275 274 274 274 273 274 274 274 275
264 264 264 264 264 264 264 264 265 265 265 266 266 267 268 269 269 270 271 271 272 272 272 273 273 274 275 275 276 277 277 277 277 277 276 276 275 275 275 275 275 275
264 264 264 264 264 264 264 264 264 265 265 266 267 268 268 269 270 270 271 272 272 273 273 273 274 275 276 276 277 278 279 279 279 278 278 277 277 276 276 276 276 276
263 263 263 263 263 264 264 264 264 265 265 266 267 268 269 270 270 271 272 272 273 273 273 274 275 276 276 277 278 279 279 280 280 280 280 279 278 278 277 277 276 276
263 263 263 263 263 264 264 264 264 265 266 266 267 268 269 270 271 271 272 273 273 274 274 275 275 277 277 278 279 279 280 280 280 281 281 281 280 280 279 278 277 277
262 263 263 263 263 264 264 264 265 265 266 266 267 268 269 270 271 272 273 273 274 275 275 275 276 277 278 278 279 280 280 280 281 281 281 282 282 281 280 279 279 278
262 262 263 263 263 263 264 264 265 265 266 267 267 269 270 270 271 272 273 274 275 275 276 276 277 278 279 279 280 280 280 280 281 281 281 282 282 282 281 280 280 279
262 262 262 263 263 263 264 264 265 265 266 267 268 269 270 271 272 273 273 274 275 276 277 278 278 279 280 280 280 281 281 281 281 281 281 281 282 283 282 281 280 280
Wind_Speed
19 20 20 20 20 20 20 19 19 20 21 21 22 22 22 21 21 21 21 21 22 23 23 23 23 23 23 22 21 22 22 22 22 22 21 22 22 23 23 23 23 22
20 20 19 20 19 19 19 20 20 21 21 22 22 22 22 22 22 22 22 23 23 23 23 23 23 23 22 22 21 21 21 23 24 25 25 25 24 24 23 23 23 22
19 18 19 19 20 20 20 20 20 20 21 21 22 22 22 22 22 22 22 23 23 24 23 23 22 22 22 22 22 22 22 22 23 23 24 26 25 24 23 23 23 23
18 19 19 20 20 21 21 20 20 21 21 22 22 22 22 22 22 22 23 23 23 23 23 23 23 22 23 23 23 24 24 25 26 25 24 25 24 24 23 23 23 23
19 20 20 21 20 21 20 20 21 21 22 22 23 22 22 22 23 23 23 23 23 23 23 23 23 23 23 23 23 24 24 25 26 27 27 27 26 24 24 24 23 24
20 20 21 21 20 20 21 21 22 22 22 22 22 22 22 23 23 23 23 23 23 23 23 23 23 23 23 23 23 23 23 24 24 25 27 27 26 25 24 24 24 24
21 21 21 20 20 21 21 22 22 22 22 22 22 23 23 23 24 24 24 24 24 24 23 23 23 23 23 23 23 23 23 23 24 25 25 25 25 25 24 24 25 24
21 21 20 20 21 21 21 21 21 22 22 22 23 23 23 23 23 23 24 24 24 24 24 24 24 23 23 23 23 23 23 23 23 24 25 25 25 25 25 25 25 25
21 21 21 21 21 21 21 22 22 22 22 22 22 22 22 23 23 23 23 23 24 24 24 24 24 24 24 23 23 23 23 23 23 23 23 24 24 24 24 24 25 26
21 21 21 22 22 22 22 22 22 22 22 22 22 23 23 23 23 23 23 24 24 24 24 24 24 24 24 24 24 24 24 24 23 23 23 23 23 24 24 24 26 27
21 21 22 22 22 23 22 22 23 22 22 22 22 23 23 23 23 23 23 23 23 23 23 23 23 23 24 24 24 24 24 25 24 25 25 24 23 23 21 21 22 22
22 22 22 22 23 23 23 23 23 23 23 23 23 23 23 23 23 23 22 23 23 23 23 24 23 23 24 24 24 24 24 25 25 25 26 26 25 24 22 21 21 19
22 22 23 23 23 24 24 24 24 24 24 23 23 23 23 23 23 23 23 23 23 23 23 23 23 23 24 24 24 24 24 24 25 25 25 25 26 26 25 25 24 21
23 23 23 24 24 24 25 25 24 24 24 24 23 23 23 22 22 23 23 22 22 23 23 23 23 23 24 24 24 24 24 24 24 24 24 24 25 25 26 27 26 25
23 24 24 24 25 25 26 25 25 25 25 25 24 24 24 24 23 23 23 22 22 22 22 22 22 23 23 24 24 24 24 24 24 24 24 24 24 25 26 28 28 28
24 24 24 25 25 26 26 26 25 25 25 26 26 26 26 25 24 23 23 23 23 22 22 22 21 22 23 24 25 24 23 22 22 22 22 23 24 24 25 26 28 29
24 24 24 25 25 26 26 26 26 26 26 27 28 27 27 25 24 24 24 24 24 24 23 23 23 24 24 25 26 26 25 24 22 22 22 22 23 23 24 24 25 27
24 24 25 25 26 26 26 26 26 27 27 28 29 29 27 26 25 26 27 25 25 25 25 25 26 26 25 25 26 26 26 26 25 24 24 24 24 23 23 23 23 24
24 24 25 25 26 26 27 27 27 27 28 29 29 28 26 26 27 27 27 25 24 25 26 26 27 26 24 24 25 24 24 24 25 25 26 27 27 25 24 22 21 21
24 24 25 26 26 27 27 27 27 28 28 28 28 27 25 25 26 26 26 26 24 24 25 26 26 26 23 22 22 22 21 22 24 26 27 28 29 30 28 25 22 20
24 25 26 26 27 27 27 27 27 27 28 28 26 25 24 24 24 24 25 26 24 22 23 25 26 25 22 21 21 21 20 21 23 26 28 29 30 31 32 31 28 23
24 25 26 26 26 26 27 27 27 27 27 27 25 24 23 22 22 23 23 23 23 22 20 23 27 26 22 21 21 20 19 19 19 22 25 28 31 32 32 32 31 28
24 25 26 26 26 26 27 27 26 27 27 26 25 25 24 23 23 23 23 22 23 23 22 23 27 27 23 22 21 19 18 17 17 17 19 22 26 29 30 30 30 31
25 24 25 26 26 26 27 27 26 26 27 26 25 24 24 24 23 24 24 23 24 27 26 25 25 26 24 22 20 18 16 15 16 16 16 17 18 21 24 26 27 29
24 24 25 25 26 26 27 27 26 26 27 26 25 24 24 24 23 23 25 27 28 29 28 25 24 26 26 22 19 17 15 15 14 14 15 15 14 14 15 18 21 23
25 25 25 25 26 26 27 26 25 25 25 26 25 23 23 23 23 25 28 32 32 29 26 25 24 25 25 22 17 15 14 13 12 13 13 14 14 11 10 13 16 19
Wind_Direction
313 311 309 307 306 303 302 301 298 295 294 293 292 290 288 286 284 283 280 279 278 277 276 275 273 272 270 268 267 266 264 262 265 264 259 256 254 250 249 247 247 248
309 309 308 308 306 304 303 301 298 295 293 291 291 290 288 286 283 281 280 278 278 278 278 276 273 269 266 265 266 269 267 260 257 256 255 255 255 253 251 250 249 250
311 311 311 309 306 304 303 301 297 294 293 292 291 290 289 288 286 283 281 280 278 278 277 275 272 269 267 266 265 267 268 266 261 257 254 251 251 252 253 252 252 251
315 313 311 309 307 305 303 301 298 296 294 293 292 291 290 288 286 284 282 280 279 277 275 273 270 268 267 266 264 262 261 261 260 258 256 254 253 254 255 254 254 253
315 313 312 310 308 306 304 302 300 298 296 294 293 292 290 288 287 285 283 282 279 278 276 273 271 269 268 267 266 263 259 257 254 252 252 254 255 255 256 254 254 252
314 313 312 310 308 307 306 303 301 299 297 295 293 291 290 288 286 284 283 281 279 278 276 273 271 269 268 267 266 263 261 258 255 251 250 250 251 251 252 251 251 250
314 314 312 311 310 308 305 303 301 299 297 296 294 292 290 288 285 284 282 280 279 277 275 274 272 269 268 266 265 264 262 259 256 253 251 251 251 250 250 250 250 250
315 315 313 312 311 308 305 303 302 301 299 297 294 292 290 288 286 284 282 280 278 276 274 272 270 269 268 265 264 263 262 260 256 253 252 252 252 252 251 251 251 251
315 315 314 313 311 309 306 305 303 302 300 298 296 294 291 288 286 284 282 280 278 275 273 271 269 267 265 263 262 261 261 260 257 254 253 252 252 252 251 251 251 251
315 315 315 313 312 310 307 306 305 303 301 299 297 295 292 289 287 285 282 280 276 274 272 270 268 266 263 261 259 258 258 258 258 257 257 256 255 252 249 249 249 246
316 316 315 314 313 310 308 307 305 303 301 298 296 294 292 290 288 285 282 280 277 274 272 269 267 265 263 261 259 257 256 255 255 255 255 258 260 256 252 255 256 251
317 317 316 315 313 310 309 307 305 303 301 298 295 293 292 289 287 285 282 280 277 274 272 269 267 265 262 261 259 257 256 255 255 253 252 253 257 259 260 263 265 263
317 317 316 314 312 310 308 306 304 303 301 299 296 293 291 288 286 284 281 279 277 275 272 269 267 264 261 260 258 257 256 256 255 254 252 250 251 253 256 258 260 261
317 317 315 313 311 309 307 306 304 303 301 300 297 294 291 288 286 284 282 279 276 273 272 269 266 263 260 258 256 255 254 253 253 252 252 251 250 249 249 252 256 259
316 316 314 312 311 308 307 306 304 303 302 301 298 295 292 290 287 285 282 279 276 273 271 268 265 262 259 255 253 251 249 249 250 250 251 251 250 249 248 248 251 254
315 314 313 312 310 308 308 307 306 305 303 301 299 296 294 293 290 286 283 280 277 274 271 267 263 259 257 254 252 249 246 244 244 246 249 251 251 251 250 249 247 248
315 313 312 311 310 309 308 307 306 305 303 302 300 298 297 295 291 289 288 285 282 279 275 269 266 264 261 258 255 252 248 244 240 239 241 245 250 251 250 250 247 245
314 313 312 310 309 309 308 307 306 305 304 302 301 302 301 297 296 297 297 295 292 288 284 280 278 276 268 262 259 256 252 248 243 238 237 238 241 246 248 248 246 244
313 312 311 309 309 308 307 307 307 305 304 304 303 303 301 298 300 303 302 300 297 294 293 292 292 292 284 272 266 263 257 252 247 242 239 238 237 238 241 243 243 241
313 312 310 309 308 308 307 306 306 304 304 305 303 302 299 298 300 303 305 304 299 296 297 297 299 303 299 286 277 272 265 258 251 246 242 241 241 240 239 240 239 237
312 311 310 309 307 307 306 305 305 304 304 305 304 302 299 298 297 300 304 305 302 298 295 296 302 307 300 290 285 281 276 270 259 250 244 241 242 243 241 240 239 236
312 311 310 309 308 307 306 305 305 305 305 306 305 303 301 299 297 297 298 300 301 299 290 291 301 307 299 290 290 287 284 283 274 263 253 245 244 246 243 240 238 235
312 310 308 308 308 306 305 305 305 305 306 307 306 305 305 303 300 298 296 295 298 299 293 289 298 307 303 294 292 290 287 285 281 276 267 255 252 252 247 243 239 235
309 308 307 307 306 305 303 303 304 304 305 306 305 304 303 302 301 300 298 296 297 301 301 295 294 306 311 304 296 293 289 284 280 279 277 270 265 259 251 247 244 237
308 307 306 305 304 303 301 302 303 303 304 305 304 302 302 302 301 300 300 304 307 308 308 302 297 305 314 311 300 294 290 287 282 277 277 278 275 262 247 245 246 239
307 306 304 303 302 301 301 302 302 302 303 304 303 302 301 300 300 303 306 311 314 313 310 308 304 306 311 311 303 297 294 288 284 280 278 279 279 270 248 238 240 239